Regional Weather Roundup
Issued by NWS

Home | Current Version | Previous Version | Graphics & Text | Print | Product List | Glossary On
Versions: 1 2 3 4 5 6 7 8 9 10 11 12 13 14 15 16 17 18 19 20 21 22 23 24 25 26 27 28 29 30 31 32 33 34 35 36 37 38 39 40 41 42 43 44 45 46 47 48 49 50
000
ASUS43 KLOT 210310
RWRIL

ILLINOIS REGIONAL WEATHER ROUNDUP
NATIONAL WEATHER SERVICE CHICAGO/ROMEOVILLE IL
1000 PM CDT WED AUG 20 2014

NOTE: "FAIR" INDICATES FEW OR NO CLOUDS BELOW 12,000 FEET WITH NO
SIGNIFICANT WEATHER AND/OR OBSTRUCTIONS TO VISIBILITY.

* THESE STATIONS ARE NOT UNDER NWS QUALITY CONTROL. THEY ALSO MAY NOT
  REPORT WEATHER SUCH AS PRECIPITATION OR FOG.

ILZ001-002-007-009-015-016-024-210400-
NORTHWEST ILLINOIS

CITY           SKY/WX    TMP DP  RH WIND       PRES   REMARKS
MOLINE         PTCLDY    70  68  93 SE7       29.91R
STERLING*      CLOUDY    70  66  88 CALM      29.94R
SAVANNA*       CLOUDY    71  67  89 E5        29.92R
$$

ILZ003-004-008-010-011-017-018-210400-
NORTH CENTRAL ILLINOIS

CITY           SKY/WX    TMP DP  RH WIND       PRES   REMARKS
ROCKFORD       MOCLDY    73  68  84 S5        29.95R
FREEPORT*      CLOUDY    73  70  92 CALM      29.96R
ROCHELLE*      CLOUDY    69  66  90 CALM      29.94R
DE KALB*       MOCLDY    71  65  82 W8        29.96R
PERU*          MOCLDY    70  66  87 S3        29.94R
$$

ILZ005-006-012>014-019>023-210400-
NORTHEAST ILLINOIS

CITY           SKY/WX    TMP DP  RH WIND       PRES   REMARKS
CHICAGO-OHARE  MOCLDY    76  67  73 W7        29.93R
CHICAGO-MIDWAY MOCLDY    78  70  76 W7        29.93R HX  80
AURORA         PTCLDY    71  66  84 SW6       29.94S
LANSING*       PTCLDY    74  66  75 W7        29.95S
JOLIET*        PTCLDY    71  65  82 CALM      29.95R
WAUKEGAN       MOCLDY    71  68  90 NE3       29.92R
DUPAGE AIRPORT PTCLDY    73  68  84 CALM      29.92F
KANKAKEE*      PTCLDY    67  66  96 CALM      29.97R
WHEELING       PTCLDY    78  69  73 W7        29.94R HX  80
MORRIS*        PTCLDY    69  68  94 CALM      29.94R
ROMEOVILLE*    PTCLDY    70  67  89 CALM      29.94S
NORTHERLY ISL    N/A     78  69  73 SW8         N/A  HX  80
$$

LMZ740>746-210400-
SOUTHERN LAKE MICHIGAN

STATION/POSITION SKY/WX   TEMP    WIND        PRES    VSBY  WAVE
                          AIR SEA DIR/SP/G                  HT/PER
                          (F)     (DEG/KT/KT) (MB)    (MI)  (FT/S)
SOUTHERN BUOY              68 68   60/  6/  6 1013.6R         0
WAUKEGAN HARBOR            71      30/  4/  5   N/A
HARRISON CRIB              78     250/ 13/ 16   N/A
BURNHAM HARBOR             77     270/  7/ 11   N/A
CALUMET HARBOR             77     240/  5/ 10 1012.7R
BURNS HARBOR               79     200/  6/  8   N/A
MICHIGAN CITY              76     190/ 10/ 12   N/A
MICHIGAN CITY 6N           75 72  220/ 10/ 14   N/A           1
ST. JOSEPH                 75 72  180/  6/  8   N/A           1
$$

ILZ025>027-034>036-040-047-049-050-058-095>099-210400-
WEST-CENTRAL ILLINOIS

CITY           SKY/WX    TMP DP  RH WIND       PRES   REMARKS
QUINCY         CLEAR     78  75  90 S9        29.91S HX  81
GALESBURG*     CLEAR     72  70  93 SE5       29.93R
MACOMB*        CLEAR     74  73  98 S6        29.94S FOG
JACKSONVILLE*  CLEAR     78  73  84 SE9       29.94F
PITTSFIELD*    CLEAR     76  72  88 CALM      29.93F
$$

ILZ028>032-037-038-041>044-048-051>054-059>061-210400-
CENTRAL ILLINOIS

CITY           SKY/WX    TMP DP  RH WIND       PRES   REMARKS
PONTIAC        MOCLDY    72  70  94 E3        29.96R
DECATUR        CLEAR     74  70  87 S10       29.98R
PEORIA         CLEAR     76  71  85 S5        29.94R
LACON*         PTCLDY    71  69  93 CALM      29.93R
LINCOLN*       CLEAR     73  70  90 S6        29.93S
SPRINGFIELD    CLEAR     75  70  84 S5        29.95S
TAYLORVILLE    PTCLDY    70  68  94 S6        29.97S
$$

ILZ033-039-045-046-055>057-062-063-210400-
EAST-CENTRAL ILLINOIS

CITY           SKY/WX    TMP DP  RH WIND       PRES   REMARKS
CHAMPAIGN      PTCLDY    73  70  90 S10       29.99R
DANVILLE*      RAIN      71  69  93 S3        29.96R
RANTOUL*       PTCLDY    74  69  82 CALM      29.98R
MATTOON        CLEAR     74  69  85 S9        29.99R
PARIS*         PTCLDY    71  71 100 S7        30.01R
$$

ILZ079-100>102-210400-
SOUTHWEST ILLINOIS

CITY           SKY/WX    TMP DP  RH WIND       PRES   REMARKS
ALTON          MOCLDY    72  72 100 SE12      30.00F
BELLEVILLE     TSTM      75  74  98 CALM      29.99F
CAHOKIA*       LGT RAIN  77  73  87 SE6       29.97F
SPARTA*        CLOUDY    77  72  85 SE10      30.00R
$$

ILZ064>066-069>071-074>076-080>082-084>086-088>090-092>094-210400-
SOUTH-CENTRAL ILLINOIS

CITY           SKY/WX    TMP DP  RH WIND       PRES   REMARKS
CARBONDALE     MOCLDY    78  75  90 SE7       30.00R HX  81
CAIRO*         CLEAR     82  74  76 S5        30.02R HX  89
MARION         PTCLDY    79  75  89 SE6       30.02R HX  82
MT. VERNON     PTCLDY    77  68  73 S3        30.02R
CENTRALIA*     MOCLDY    76  68  77 S9        30.00S
SALEM*         MOCLDY    78  72  80 S5        30.01R HX  81
$$

ILZ067-068-072-073-078-083-087-091-210400-
SOUTHEAST ILLINOIS

CITY           SKY/WX    TMP DP  RH WIND       PRES   REMARKS
LAWRENCEVILLE  CLEAR     72  70  93 S6        30.02R
FLORA*         CLEAR     72  70  93 S6        30.01S
FAIRFIELD*     CLEAR     75  73  94 S3        30.01S
HARRISBURG*    PTCLDY    79  75  89 SE5       30.03R HX  83
ROBINSON*      CLEAR     71  70  97 S5        30.01F
$$

ABBREVIATIONS USED IN REMARKS
   TC - TEMPERATURE IN CELSIUS
  WCI - WIND CHILL INDEX
   HX - HEAT INDEX
  VSB - VISIBILITY
$$



USA.gov is the U.S. government's official web portal to all federal, state and local government web resources and services.